Change the Weather History Date:

Wednesday, January 29, 2014

  Actual Average (KMQI) Record (KMQI)
Temperature  
Mean Temperature 26 °F -  
Max Temperature 29 °F 48 °F 75 °F (1975)
Min Temperature 22 °F 35 °F 17 °F (1977)
Degree Days  
Heating Degree Days 40    
Moisture  
Dew Point 18 °F    
Average Humidity 75    
Maximum Humidity 97    
Minimum Humidity 50    
Precipitation  
Precipitation 0.07 in - - ()
Sea Level Pressure  
Sea Level Pressure 30.22 in    
Wind  
Wind Speed 11 mph (NNW)    
Max Wind Speed 15 mph    
Max Gust Speed 29 mph    
Visibility 7 miles    
Events Snow    
Averages and records for this station are not official NWS values.
T = Trace of Precipitation, MM = Missing Value Source: NWS Daily Summary

Daily Weather History Graph

Daily Weather History Graph

Search for Another Location

Airport or City:

Trip Planner

Search our weather history database for the weather conditions in past years. The results will help you decide how hot, cold, wet, or windy it might be!

Date:

Astronomy

Jan. 29, 2014 Rise Set
Actual Time 7:05 AM EST 5:26 PM EST
Civil Twilight 6:38 AM EST 5:53 PM EST
Nautical Twilight 6:07 AM EST 6:24 PM EST
Astronomical Twilight 5:37 AM EST 6:54 PM EST
Moon 5:39 AM EST (1/29) 4:23 PM EST (1/29)
Length of Visible Light 11h 15m
Length of Day
10h 20m
Waning Crescent, 2% of the Moon is Illuminated
Jan 29
Waning Crescent
Jan 30
New
Feb 6
First Quarter
Feb 14
Full
Feb 22
Last Quarter

Hourly Weather History & Observations

Time (EST) Temp. Windchill Dew Point Humidity Pressure Visibility Wind Dir Wind Speed Gust Speed Precip Events Conditions
12:15 AM 29.3 °F 19.6 °F 28.2 °F 96% 30.07 in 1.2 mi North 11.5 mph 25.3 mph 0.01 in Snow Light Snow
12:35 AM 29.5 °F 18.4 °F 28.4 °F 96% 30.05 in 1.5 mi North 15.0 mph 26.5 mph 0.01 in Snow Light Snow
12:55 AM 29.3 °F 18.6 °F 28.0 °F 95% 30.07 in 1.0 mi NNW 13.8 mph 25.3 mph 0.02 in Snow Light Snow
1:15 AM 28.9 °F 18.6 °F 27.9 °F 96% 30.06 in 1.5 mi North 12.7 mph 23.0 mph 0.01 in Snow Light Snow
1:35 AM 28.6 °F 18.2 °F 27.3 °F 95% 30.07 in 1.5 mi NNW 12.7 mph 25.3 mph 0.02 in Snow Light Snow
1:55 AM 28.0 °F 18.6 °F 26.4 °F 94% 30.07 in 1.5 mi North 10.4 mph 21.9 mph 0.02 in Snow Light Snow
2:15 AM 27.0 °F 16.7 °F 25.5 °F 94% 30.07 in 1.0 mi NNW 11.5 mph 18.4 mph 0.01 in Snow Light Snow
2:35 AM 27.0 °F 16.7 °F 25.7 °F 95% 30.09 in 1.8 mi NNW 11.5 mph 25.3 mph 0.01 in Snow Light Snow
2:55 AM 26.2 °F 17.1 °F 24.8 °F 94% 30.09 in 0.5 mi NNW 9.2 mph 16.1 mph 0.02 in Snow Snow
3:15 AM 26.4 °F 16.0 °F 25.3 °F 96% 30.07 in 0.2 mi North 11.5 mph 23.0 mph N/A Snow Snow
3:35 AM 26.8 °F 16.5 °F 26.1 °F 97% 30.06 in 0.2 mi North 11.5 mph 23.0 mph N/A Snow Snow
3:55 AM 27.0 °F 16.7 °F 26.2 °F 97% 30.08 in 0.5 mi NNW 11.5 mph 23.0 mph N/A Snow Snow
4:15 AM 26.6 °F 16.2 °F 25.9 °F 97% 30.08 in 0.5 mi NNW 11.5 mph 23.0 mph 0.01 in Snow Snow
4:35 AM 26.4 °F 15.0 °F 25.5 °F 96% 30.07 in 0.5 mi NNW 13.8 mph 24.2 mph 0.01 in Snow Light Snow
4:55 AM 26.2 °F 14.7 °F 25.3 °F 96% 30.06 in 0.5 mi NNW 13.8 mph 25.3 mph 0.01 in Snow Light Snow
5:15 AM 26.4 °F 15.5 °F 25.3 °F 96% 30.07 in 0.5 mi NNW 12.7 mph 21.9 mph N/A Snow Light Snow
5:35 AM 26.4 °F 14.5 °F 25.3 °F 96% 30.08 in 0.5 mi North 15.0 mph 24.2 mph N/A Snow Snow
5:55 AM 26.2 °F 15.8 °F 25.2 °F 96% 30.09 in 0.8 mi NNW 11.5 mph 24.2 mph N/A Snow Light Snow
6:15 AM 26.1 °F 15.6 °F 25.0 °F 96% 30.09 in 0.8 mi NNW 11.5 mph 24.2 mph N/A Snow Light Snow
6:35 AM 25.9 °F 14.8 °F 24.6 °F 95% 30.12 in 0.5 mi NNW 12.7 mph 20.7 mph N/A Snow Snow
6:55 AM 25.2 °F 15.1 °F 24.1 °F 96% 30.12 in 0.5 mi NNW 10.4 mph 21.9 mph N/A Snow Snow
7:15 AM 24.8 °F 14.0 °F 23.7 °F 96% 30.14 in 1.2 mi NNW 11.5 mph 21.9 mph N/A Snow Light Snow
7:35 AM 25.2 °F 13.9 °F 23.0 °F 91% 30.14 in 5.0 mi North 12.7 mph 23.0 mph N/A Snow Light Snow
7:55 AM 25.5 °F 13.8 °F 22.6 °F 89% 30.13 in 2.5 mi NNW 13.8 mph 28.8 mph N/A Snow Light Snow
8:15 AM 25.5 °F 14.9 °F 22.6 °F 89% 30.18 in 4.0 mi NNW 11.5 mph 20.7 mph N/A Snow Light Snow
8:35 AM 25.5 °F 16.9 °F 22.3 °F 88% 30.16 in 3.0 mi North 8.1 mph 20.7 mph N/A Snow Light Snow
8:55 AM 25.7 °F 14.6 °F 22.5 °F 88% 30.18 in 4.0 mi North 12.7 mph 19.6 mph N/A Snow Light Snow
9:15 AM 25.7 °F 14.0 °F 22.5 °F 88% 30.20 in 5.0 mi North 13.8 mph 23.0 mph N/A Snow Light Snow
9:35 AM 25.7 °F 14.0 °F 22.1 °F 86% 30.22 in 10.0 mi NNW 13.8 mph 21.9 mph N/A   Overcast
9:55 AM 25.7 °F 13.5 °F 21.4 °F 84% 30.22 in 10.0 mi NNW 15.0 mph 23.0 mph N/A   Overcast
10:15 AM 25.7 °F 14.6 °F 21.2 °F 83% 30.23 in 10.0 mi North 12.7 mph 19.6 mph N/A   Overcast
10:35 AM 25.7 °F 15.1 °F 20.7 °F 81% 30.23 in 10.0 mi North 11.5 mph 25.3 mph N/A   Overcast
10:55 AM 25.7 °F 14.0 °F 19.6 °F 78% 30.24 in 10.0 mi North 13.8 mph 23.0 mph N/A   Overcast
11:15 AM 25.7 °F 14.6 °F 19.6 °F 78% 30.25 in 10.0 mi North 12.7 mph 20.7 mph N/A   Overcast
11:35 AM 26.1 °F 14.5 °F 19.2 °F 75% 30.25 in 10.0 mi North 13.8 mph 19.6 mph N/A   Overcast
11:55 AM 26.4 °F 17.3 °F 18.3 °F 71% 30.25 in 10.0 mi NW 9.2 mph 20.7 mph N/A   Overcast
12:15 PM 25.3 °F 16.0 °F 19.6 °F 79% 30.24 in 10.0 mi NW 9.2 mph 17.3 mph N/A   Overcast
12:35 PM 24.3 °F 13.9 °F 19.0 °F 80% 30.23 in 10.0 mi NW 10.4 mph 16.1 mph N/A   Overcast
12:55 PM 23.7 °F 12.1 °F 18.0 °F 79% 30.24 in 10.0 mi NNW 12.7 mph 18.4 mph N/A   Overcast
1:15 PM 24.3 °F 15.4 °F 18.0 °F 77% 30.24 in 10.0 mi NNW 8.1 mph 17.3 mph N/A   Overcast
1:35 PM 25.3 °F 16.7 °F 17.6 °F 72% 30.24 in 10.0 mi NNW 8.1 mph 17.3 mph N/A   Mostly Cloudy
1:55 PM 25.7 °F 17.1 °F 16.7 °F 69% 30.25 in 10.0 mi NNW 8.1 mph 17.3 mph N/A   Mostly Cloudy
2:15 PM 25.5 °F 16.2 °F 16.9 °F 70% 30.25 in 10.0 mi NNW 9.2 mph 19.6 mph N/A   Mostly Cloudy
2:35 PM 25.2 °F 15.1 °F 16.0 °F 68% 30.26 in 10.0 mi NNW 10.4 mph 16.1 mph N/A   Scattered Clouds
2:55 PM 24.8 °F 16.1 °F 14.7 °F 66% 30.25 in 10.0 mi NW 8.1 mph - N/A   Clear
3:15 PM 24.6 °F 15.1 °F 13.8 °F 64% 30.27 in 10.0 mi NW 9.2 mph - N/A   Clear
3:35 PM 24.3 °F 16.3 °F 12.7 °F 62% 30.27 in 10.0 mi NNW 6.9 mph - N/A   Clear
3:55 PM 23.9 °F 14.2 °F 12.4 °F 62% 30.26 in 10.0 mi NW 9.2 mph - N/A   Clear
4:15 PM 23.5 °F 16.4 °F 11.8 °F 61% 30.27 in 10.0 mi NNW 5.8 mph - N/A   Clear
4:35 PM 23.2 °F 16.0 °F 11.3 °F 60% 30.29 in 10.0 mi NW 5.8 mph - N/A   Clear
4:55 PM 22.8 °F 16.7 °F 10.0 °F 58% 30.29 in 10.0 mi NW 4.6 mph - N/A   Clear
5:15 PM 22.6 °F 15.3 °F 9.5 °F 57% 30.30 in 10.0 mi NW 5.8 mph - N/A   Clear
5:35 PM 22.6 °F 13.4 °F 8.4 °F 55% 30.31 in 10.0 mi NW 8.1 mph - N/A   Clear
5:55 PM 22.6 °F 15.3 °F 8.2 °F 54% 30.29 in 10.0 mi NW 5.8 mph - N/A   Clear
6:15 PM 22.5 °F 16.3 °F 9.1 °F 57% 30.29 in 10.0 mi NNW 4.6 mph - N/A   Clear
6:35 PM 22.3 °F 17.6 °F 8.8 °F 56% 30.31 in 10.0 mi NW 3.5 mph - N/A   Clear
6:55 PM 22.1 °F 14.7 °F 7.9 °F 54% 30.32 in 10.0 mi NW 5.8 mph - N/A   Clear
7:15 PM 22.5 °F 15.1 °F 7.2 °F 52% 30.32 in 10.0 mi NW 5.8 mph - N/A   Clear
7:35 PM 22.6 °F 15.3 °F 7.3 °F 52% 30.34 in 10.0 mi WNW 5.8 mph - N/A   Clear
7:55 PM 22.6 °F 16.5 °F 7.5 °F 52% 30.33 in 10.0 mi NW 4.6 mph - N/A   Clear
8:15 PM 22.8 °F 15.5 °F 7.5 °F 52% 30.33 in 10.0 mi NW 5.8 mph - N/A   Clear
8:35 PM 23.0 °F 14.7 °F 7.7 °F 52% 30.34 in 10.0 mi NW 6.9 mph - N/A   Clear
8:55 PM 23.0 °F 13.9 °F 7.9 °F 52% 30.35 in 10.0 mi NW 8.1 mph - N/A   Clear
9:15 PM 22.8 °F 16.7 °F 6.6 °F 50% 30.35 in 10.0 mi NW 4.6 mph - N/A   Clear
9:35 PM 22.8 °F 16.7 °F 7.5 °F 52% 30.35 in 10.0 mi NW 4.6 mph - N/A   Clear
9:55 PM 23.0 °F 17.0 °F 6.8 °F 50% 30.35 in 10.0 mi NW 4.6 mph - N/A   Clear
10:15 PM 22.8 °F 16.7 °F 6.4 °F 50% 30.38 in 10.0 mi WNW 4.6 mph - N/A   Clear
10:35 PM 22.6 °F 16.5 °F 7.3 °F 52% 30.38 in 10.0 mi WNW 4.6 mph - N/A   Clear
10:55 PM 22.6 °F 16.5 °F 8.2 °F 54% 30.37 in 10.0 mi NW 4.6 mph - N/A   Clear
11:15 PM 22.5 °F 16.3 °F 9.3 °F 57% 30.38 in 10.0 mi NW 4.6 mph - N/A   Clear
11:35 PM 22.6 °F 16.5 °F 10.2 °F 59% 30.36 in 10.0 mi NW 4.6 mph - N/A   Clear
11:55 PM 22.8 °F 18.2 °F 10.2 °F 59% 30.36 in 10.0 mi NW 3.5 mph - N/A   Clear